GFSFLT1_sfc_30mbdewp_231.txt.gz
Dewpoint
50 53 55 56 56 58 62 63 66 68 70 69 70 71 70 71 71 70 71 71 71 71 70 70 71 72 72 72 72 71 72 72 69
48 53 55 57 60 60 62 63 66 69 70 70 70 71 71 71 71 71 71 70 71 71 71 70 71 71 71 71 71 72 71 71 69
48 50 52 55 58 59 61 63 66 70 70 65 55 71 71 71 71 71 72 71 70 70 71 71 71 72 71 71 71 71 70 70 71
47 50 52 54 56 58 60 64 66 67 69 70 71 71 71 71 71 72 72 72 71 71 70 71 70 70 70 71 70 70 71 70 69
48 51 53 55 57 58 63 63 60 64 62 64 66 69 69 68 69 71 70 70 71 71 71 71 70 70 70 70 71 70 70 70 69
51 51 53 56 66 66 66 67 63 60 57 58 61 58 61 62 66 62 61 61 63 63 67 70 70 70 69 69 70 70 70 70 70
55 55 54 66 65 63 63 63 62 61 61 62 61 62 62 61 63 64 65 66 65 66 67 66 64 66 69 69 69 69 70 70 69
55 56 65 64 62 62 63 61 61 61 61 62 62 64 64 64 65 65 65 65 65 65 65 65 66 67 67 67 67 66 68 70 69
54 56 64 63 61 62 62 62 61 62 62 63 64 63 62 63 64 63 63 63 63 64 64 64 64 64 65 65 66 65 63 64 64
54 56 62 61 62 62 62 61 62 62 63 63 63 62 62 63 63 63 63 63 63 63 63 64 64 65 65 64 65 64 63 63 63
56 62 61 61 62 62 61 62 61 61 61 62 61 60 63 64 63 62 62 63 62 62 63 63 62 63 64 64 65 63 61 61 63
61 63 61 61 61 61 61 60 61 59 58 59 62 62 62 61 60 59 60 59 59 61 60 59 60 61 60 61 60 61 60 61 60
60 62 60 61 61 60 59 59 59 57 57 61 60 60 60 59 61 59 58 58 60 59 58 57 58 57 59 61 60 60 61 59 59
63 60 60 60 61 60 59 58 57 59 60 59 59 59 60 59 57 58 59 57 57 56 56 57 58 59 61 60 59 60 58 58 59
59 59 59 60 59 59 59 58 57 60 58 58 58 58 58 57 57 56 56 57 57 58 59 60 60 59 59 59 60 55 52 53 54
59 59 59 60 59 59 58 57 58 58 58 58 57 56 55 55 56 56 56 55 55 55 55 56 56 54 54 55 58 52 50 49 50
59 59 58 59 59 58 57 57 58 57 57 56 56 55 54 55 55 55 54 53 53 53 54 53 53 54 54 55 55 49 48 48 49
59 58 57 57 59 57 56 57 57 56 55 55 54 54 54 55 54 54 53 53 54 54 53 53 52 53 54 52 48 47 46 46 47
57 55 56 56 58 56 57 56 56 55 55 54 54 54 53 53 52 53 52 51 52 53 52 51 52 51 49 49 47 47 47 46 47
55 55 55 55 55 55 57 56 56 55 56 55 55 53 53 52 52 52 51 52 51 50 51 51 50 48 47 47 47 47 47 47 47

GFSFLT1_sfc_30mbdewp_234.txt.gz
Dewpoint
56 57 58 58 60 63 64 65 66 68 69 69 71 70 70 70 68 70 70 70 70 70 70 70 71 71 71 71 71 71 71 71 70
55 56 57 57 60 62 63 64 67 68 69 69 70 71 70 70 70 70 70 71 71 71 71 71 70 71 72 72 71 71 71 71 71
53 55 56 57 57 60 63 64 67 69 69 69 67 69 70 71 71 71 71 71 70 70 71 71 70 71 71 70 71 71 71 71 71
50 54 55 58 58 59 62 64 68 69 69 63 56 62 69 71 71 72 72 71 71 71 71 71 70 71 71 71 70 71 71 70 69
54 53 54 57 59 62 64 67 68 69 68 60 68 70 71 69 70 71 70 69 69 70 70 71 70 70 70 70 70 71 70 70 70
54 55 54 56 61 61 61 66 65 64 67 69 68 67 66 67 63 61 62 63 64 66 65 65 66 69 69 69 70 69 70 70 70
53 54 57 61 62 64 64 65 65 64 62 61 61 61 62 63 64 65 65 65 65 65 65 65 66 66 66 67 68 69 69 70 70
54 58 65 64 64 64 63 63 63 62 62 62 62 63 64 64 64 64 63 63 63 63 64 64 64 64 64 65 66 65 64 65 67
55 59 64 63 64 62 63 60 62 63 63 63 62 62 62 63 63 62 62 62 63 63 63 64 64 64 65 64 65 64 63 63 62
55 58 63 62 63 63 63 62 63 63 63 62 62 62 63 62 63 63 63 63 62 61 62 62 61 63 63 63 62 62 60 61 62
56 60 63 64 64 64 64 64 63 63 63 62 61 63 63 62 61 60 60 60 59 60 60 59 59 60 59 59 61 61 60 60 60
58 63 65 65 65 65 64 63 63 62 62 62 62 61 60 59 59 59 57 57 59 59 58 57 57 58 57 58 60 60 59 59 59
62 62 64 65 66 63 62 61 60 61 61 60 60 59 59 59 58 57 57 58 57 57 56 56 57 58 59 60 59 54 54 58 59
62 63 58 58 64 61 60 59 60 60 59 58 59 59 58 57 57 57 56 56 56 57 58 59 59 59 59 59 57 52 51 51 54
60 64 62 63 61 59 60 61 59 59 58 58 58 57 56 56 55 57 57 55 56 56 56 55 55 55 55 57 55 50 49 49 50
63 62 62 61 60 59 60 60 59 58 57 57 56 55 55 55 55 55 55 54 53 53 53 54 53 53 54 56 50 49 48 48 48
60 60 60 60 58 58 58 59 58 57 56 55 55 54 54 54 54 55 53 52 52 52 52 52 52 53 53 51 48 47 47 47 47
59 60 60 59 57 57 57 57 56 55 55 55 54 54 54 54 54 53 52 52 52 53 53 52 52 53 50 47 47 47 46 46 47
59 58 59 58 57 57 56 55 55 54 54 53 53 53 53 53 53 52 52 51 51 52 52 52 51 50 49 48 47 47 47 47 47
57 57 58 57 57 56 55 55 54 55 54 54 53 52 52 52 52 52 51 52 51 50 50 49 47 47 47 48 47 47 47 47 47

GFSFLT1_sfc_30mbdewp_237.txt.gz
Dewpoint
57 58 59 60 61 62 63 62 65 67 69 68 69 70 70 70 70 68 68 69 69 68 68 68 70 71 71 70 70 70 70 70 70
54 57 58 58 60 61 64 64 65 67 68 69 69 70 70 70 70 69 69 70 71 70 71 71 71 71 71 71 71 71 71 70 70
53 57 57 58 59 61 64 64 65 68 69 68 69 70 71 70 70 71 71 71 70 70 71 71 71 70 70 71 71 71 71 70 71
55 56 57 57 59 61 63 63 65 67 69 68 67 67 69 70 71 71 71 71 71 70 71 70 70 70 71 70 70 70 70 70 70
53 55 56 58 58 60 62 64 66 67 69 67 60 63 68 71 71 71 68 67 67 70 69 70 70 70 70 70 70 71 70 69 70
52 53 55 57 59 60 63 65 67 68 69 65 69 70 68 66 66 62 62 64 66 65 65 66 66 67 68 68 69 70 70 70 70
54 55 54 57 61 62 66 66 66 67 67 67 66 64 64 63 64 65 65 64 64 64 64 64 64 64 65 65 65 65 66 69 70
54 58 58 59 61 63 65 64 61 63 64 63 62 63 63 64 64 63 63 63 63 64 64 64 64 64 64 64 65 64 63 63 63
54 62 63 63 63 64 63 63 62 62 62 62 63 63 63 63 63 62 62 63 63 62 62 62 63 63 64 64 62 61 61 62 62
56 62 64 64 63 63 63 63 64 63 62 63 62 62 63 62 62 62 62 61 60 60 59 59 60 61 60 60 61 61 60 61 60
59 63 63 64 64 64 64 64 64 65 64 63 62 62 62 61 61 60 59 58 59 59 58 57 57 57 57 58 60 59 59 60 60
60 62 64 64 65 65 65 63 63 65 63 62 62 61 60 59 59 58 56 57 58 57 56 56 56 57 57 58 55 55 58 59 59
64 65 65 65 65 65 64 65 65 64 62 62 61 60 59 59 58 57 57 57 56 56 56 58 59 59 59 55 52 51 51 54 54
62 65 64 65 65 64 64 64 63 62 61 60 60 59 58 57 57 56 56 55 56 57 58 56 56 57 57 53 51 50 50 50 49
61 60 61 63 63 63 62 62 61 60 60 60 59 58 57 56 56 56 55 55 54 54 54 53 53 53 55 52 50 49 49 49 50
62 58 61 62 61 61 61 61 61 60 60 59 58 56 55 55 56 55 54 53 52 52 53 52 53 53 54 50 48 48 48 48 49
62 61 61 60 60 60 60 60 60 60 59 58 55 54 54 54 54 54 53 53 53 52 51 51 52 51 49 47 47 47 46 47 47
61 61 60 59 59 59 59 59 58 58 56 55 54 54 54 54 54 53 52 52 52 52 52 52 51 51 48 46 46 46 46 46 47
61 60 59 58 58 58 58 57 56 55 55 54 53 53 53 53 52 51 52 51 51 50 51 52 51 49 48 47 47 46 46 47 47
60 60 58 58 57 58 57 56 55 54 54 54 53 52 52 52 52 52 51 51 50 49 49 47 47 47 47 47 47 46 46 47 47

GFSFLT1_sfc_30mbdewp_240.txt.gz
Dewpoint
58 59 62 61 62 62 62 62 62 64 65 65 67 69 69 69 69 69 69 68 68 69 68 68 69 69 69 69 70 70 70 70 70
56 57 59 60 61 62 63 62 62 64 66 67 68 69 69 70 70 69 69 69 70 71 70 70 70 70 70 70 70 70 70 70 70
54 57 58 58 59 61 63 64 63 65 67 68 69 69 70 70 70 70 70 71 70 70 70 71 71 70 71 71 71 71 71 70 70
52 56 57 57 58 60 62 64 65 66 68 68 68 69 70 70 71 71 71 71 71 70 71 70 70 70 70 70 70 71 71 70 70
52 55 57 58 58 60 62 63 65 66 68 68 67 66 67 69 71 70 68 67 69 69 67 68 70 70 70 70 70 70 70 70 71
55 56 57 58 58 59 61 63 65 66 68 67 63 66 69 70 66 64 64 65 66 66 65 66 66 67 67 67 69 70 70 70 70
54 55 56 57 58 59 62 64 66 67 68 66 69 68 65 64 63 65 64 64 64 63 64 63 63 64 64 65 65 65 65 66 69
53 54 55 56 58 60 64 64 66 66 67 67 65 64 64 64 64 63 63 63 64 64 64 64 64 64 64 65 62 62 63 63 63
54 56 56 57 59 64 64 63 63 64 64 64 64 64 63 63 62 62 62 62 62 62 61 62 62 62 63 62 61 60 61 61 62
54 59 61 61 62 64 63 63 64 64 63 63 63 63 62 62 62 62 61 60 60 59 58 58 59 59 59 59 61 60 60 61 60
55 60 63 63 64 64 64 64 64 64 64 62 63 62 62 61 61 60 59 59 59 58 57 56 56 57 58 58 56 58 59 60 60
57 63 64 64 64 63 64 64 63 61 62 63 62 62 61 60 59 57 57 58 57 57 56 56 57 58 58 54 53 52 55 57 57
62 64 64 64 64 64 64 64 62 60 61 63 62 61 60 59 57 56 57 57 56 56 57 59 59 58 55 52 50 51 50 52 52
64 65 65 65 65 64 63 63 62 61 62 62 62 60 59 57 57 57 56 56 56 57 55 55 57 55 53 51 50 50 50 50 50
63 64 64 65 64 64 64 64 63 62 62 61 60 58 57 57 57 56 56 55 55 55 54 53 53 55 53 50 49 49 49 49 50
61 61 63 63 63 63 63 63 63 61 61 60 58 57 56 55 56 55 54 53 53 53 52 53 53 53 50 48 47 47 48 48 49
61 60 62 61 61 61 61 62 62 61 61 59 58 56 55 55 55 54 54 53 53 52 52 52 51 49 47 46 47 47 47 48 48
61 60 61 61 60 60 60 60 60 60 59 57 56 55 54 54 54 54 52 52 53 52 52 52 51 49 47 46 46 46 47 47 47
61 60 60 60 60 59 59 59 59 58 57 56 54 53 54 54 54 53 52 52 51 49 51 52 51 48 47 47 47 46 47 47 47
60 59 59 59 59 58 58 57 57 56 55 54 54 53 53 53 53 51 51 51 50 50 48 47 47 47 47 47 47 46 46 46 47

GFSFLT1_sfc_30mbdewp_246.txt.gz
Dewpoint
54 54 54 57 59 61 62 63 64 64 66 67 68 68 69 70 71 68 67 68 67 67 70 71 70 70 70 69 69 69 69 68 69
52 53 53 55 57 60 60 60 62 63 65 67 68 68 70 70 70 69 68 70 70 70 71 71 72 71 70 70 70 70 70 69 68
50 53 54 55 56 58 59 59 60 62 64 65 67 67 68 69 70 70 70 71 70 71 72 72 73 72 71 71 71 70 71 71 70
49 52 54 54 55 57 59 59 60 61 64 65 66 67 67 68 70 70 70 70 72 72 72 72 71 72 72 71 71 71 71 71 70
48 53 55 54 55 56 58 59 59 61 63 65 66 67 69 69 70 70 70 70 71 71 70 71 71 72 71 70 70 70 70 70 69
50 54 54 53 53 57 60 62 63 65 66 66 66 68 68 69 71 68 67 68 66 67 67 66 65 68 70 70 70 69 69 69 69
51 55 55 53 53 57 61 63 65 67 67 67 67 67 68 69 69 69 68 66 66 66 66 66 65 66 66 67 67 67 67 67 67
50 53 55 55 53 57 61 64 67 67 67 68 68 68 69 70 69 67 67 67 67 66 66 66 66 65 65 65 62 61 65 65 64
52 51 55 56 56 58 62 65 67 68 69 70 70 70 69 69 67 67 67 67 66 65 64 65 64 63 63 62 58 61 61 62 61
53 55 55 57 57 60 63 66 68 69 69 70 70 69 68 68 67 67 66 65 64 64 63 64 63 63 62 63 62 59 60 60 60
54 56 57 58 58 61 65 67 67 68 69 68 68 67 66 66 66 65 64 64 64 63 62 61 60 60 61 61 57 54 55 58 60
55 57 59 60 60 64 67 67 68 68 68 67 66 65 65 66 64 64 64 64 62 60 60 61 60 60 60 60 58 51 52 56 57
55 58 61 63 64 66 66 67 68 67 66 65 64 64 64 65 65 64 63 62 61 60 60 60 60 60 60 57 59 50 50 52 54
57 60 63 64 65 65 65 66 65 65 64 63 64 65 65 64 64 63 62 61 61 60 60 60 59 59 59 58 55 55 50 50 53
60 62 64 64 64 64 65 65 64 64 63 64 65 65 62 61 62 61 61 61 60 60 60 59 59 58 56 56 55 49 49 50 50
61 63 64 65 64 65 65 65 64 63 64 65 64 63 62 61 60 60 61 60 59 58 58 56 55 54 51 47 45 48 49 49 49
62 63 64 65 65 65 65 65 64 64 65 64 63 63 61 59 59 58 58 58 57 53 53 52 52 46 42 43 43 44 46 48 50
62 63 64 65 65 65 65 65 65 65 64 64 63 62 60 60 59 58 57 54 53 51 52 50 46 44 44 43 40 45 48 48 48
63 63 64 64 64 65 65 65 65 64 64 64 62 61 60 59 59 56 55 55 54 50 51 51 48 47 46 44 45 46 47 47 47
63 63 64 64 64 64 64 64 64 64 64 64 63 61 61 59 56 54 54 52 50 49 51 49 47 46 45 46 45 45 46 46 47

GFSFLT1_sfc_30mbdewp_252.txt.gz
Dewpoint
47 50 53 56 59 59 66 66 67 67 68 69 70 69 70 71 71 71 70 69 70 68 69 70 70 71 71 71 72 72 72 71 71
34 49 52 56 59 59 60 67 66 67 67 68 68 69 70 70 71 70 69 68 70 69 71 71 70 70 71 71 71 71 71 72 70
36 48 51 56 58 59 60 62 65 66 67 68 68 68 70 69 71 71 69 70 68 70 71 72 72 72 71 70 71 71 72 71 71
33 49 51 56 57 58 59 59 63 66 66 67 67 67 67 70 70 70 71 68 70 71 72 73 72 72 71 71 70 71 72 71 71
40 50 53 55 56 58 59 60 60 62 64 66 66 68 69 69 69 70 70 70 69 70 71 71 72 72 72 71 71 71 71 71 71
46 52 53 54 54 57 58 60 63 64 64 64 65 68 68 69 69 69 71 70 70 68 66 66 67 70 70 70 70 70 71 71 70
46 52 55 54 54 56 58 62 64 65 64 66 65 67 68 69 69 69 70 69 66 66 66 65 64 65 66 66 67 68 69 69 69
48 51 54 55 55 60 62 64 65 66 65 68 67 68 68 70 69 68 67 68 67 66 66 65 65 64 65 64 62 62 63 65 65
47 52 55 55 58 61 63 65 66 67 67 69 66 69 69 69 69 69 69 68 67 66 65 65 64 64 63 63 59 59 60 61 64
47 53 55 56 59 62 64 67 68 69 69 70 69 68 68 70 70 70 69 68 67 66 65 65 64 63 65 65 59 57 57 58 63
48 51 55 58 58 62 65 67 68 68 70 70 70 70 70 70 70 69 68 67 66 66 65 64 64 63 64 62 56 54 54 55 60
48 53 55 59 58 62 66 67 68 69 70 71 71 71 70 70 69 68 68 66 67 66 64 63 63 63 62 63 58 52 52 53 60
53 55 56 58 60 62 66 68 69 70 72 72 71 71 70 69 69 68 67 68 66 64 64 64 63 62 62 61 60 52 51 51 56
56 59 59 60 59 65 67 69 69 70 72 71 72 70 69 68 68 68 67 65 65 64 64 63 62 62 61 61 59 55 49 50 53
57 59 63 63 63 66 68 69 70 71 71 70 69 68 67 67 67 67 65 64 63 62 62 61 61 60 59 60 60 52 50 49 50
59 60 63 63 65 67 69 70 71 69 69 67 66 66 67 67 66 65 63 62 61 61 60 58 59 59 58 58 58 52 49 49 50
60 62 62 63 64 66 67 69 69 69 67 66 67 66 66 65 64 63 62 62 61 60 59 60 60 57 57 54 50 54 52 52 51
60 63 63 64 66 67 67 68 68 68 69 67 67 66 64 63 62 61 60 60 60 60 60 58 57 56 56 52 50 47 47 46 49
60 63 64 66 66 66 67 67 67 67 69 68 67 65 64 63 62 61 61 59 55 50 52 46 46 50 46 43 45 46 46 45 46
63 64 64 67 67 66 67 67 68 68 68 67 65 64 62 62 61 61 61 59 56 53 48 45 45 43 43 42 42 43 44 45 46